User: anonymous
Location: Wawayanda State Park
(41.1833°N, 74.4333°W)
Time: 00:25:26
(UTC-04:00)
Language:

RESURS DK-1 - Orbit

View from above orbital plane
View from above orbital plane
View from above satellite
View from above satellite

Ground track
Ground track

The orbit data is extracted from the following two-line orbital elements,

1 29228U 06021A   14244.84584845  .00000873  00000-0  76207-4 0  1809
2 29228 069.9379 169.5444 0002206 129.8413 333.9389 15.00779563455071
Epoch (UTC): 01 September 2014 20:18:01
Eccentricity: 0.0002206
inclination: 69.9379°
perigee height: 563 km
apogee height: 566 km
right ascension of ascending node: 169.5444°
argument of perigee: 129.8413°
revolutions per day: 15.00779563
mean anomaly at epoch: 333.9389°
orbit number at epoch: 45507

The dashed part of the orbit path shows where the satellite is in the earth's shadow,  

DLR